Theta_e
303 302 301 307 307 308 308 305 302 297 296 296 296 302 301 300 304 305 305 309 310 311 310 309 309 309 309 309 310 311 311 311 312 312 314 315 316 317
304 303 302 307 309 309 307 307 303 299 293 296 297 300 302 302 304 305 304 308 309 309 308 308 308 309 308 308 308 309 310 310 311 311 312 313 313 314
303 303 306 308 307 306 306 302 297 297 299 298 298 301 299 299 301 301 303 303 304 307 307 308 308 308 308 308 308 309 309 310 311 311 311 311 312 312
303 306 307 307 305 302 299 297 296 298 296 297 297 295 297 301 300 298 301 303 302 304 307 307 306 307 307 308 309 309 310 310 311 311 311 311 311 311
306 306 306 304 299 298 298 297 297 299 297 296 297 298 298 300 299 297 298 299 302 306 305 305 304 305 305 307 307 308 308 308 308 309 311 311 312 311
307 307 306 299 298 298 298 298 299 298 298 296 297 297 299 299 299 297 295 297 298 301 301 301 302 304 305 306 307 308 309 308 307 307 307 308 308 310
306 304 302 305 308 306 304 302 300 299 298 297 296 297 297 297 296 297 296 296 296 296 292 295 298 299 301 305 307 309 310 309 308 307 306 305 304 306
298 299 299 302 302 304 304 304 303 300 298 297 297 296 296 298 298 297 295 293 292 294 291 294 298 298 301 304 309 307 306 306 306 306 306 305 304 304
296 295 294 298 300 298 298 299 298 300 301 298 295 295 295 298 298 296 295 293 293 295 292 293 298 299 303 305 307 306 305 304 304 304 304 304 303 302
292 294 293 296 297 295 294 294 294 296 297 298 297 297 298 298 298 298 296 295 295 293 293 292 298 299 302 304 307 305 304 303 302 302 303 302 301 300
295 296 297 295 296 295 294 292 293 294 298 299 299 299 298 298 299 298 295 293 292 294 297 297 298 298 300 302 305 305 303 302 302 302 301 301 300 300
293 295 295 294 295 295 293 293 291 293 294 295 295 297 298 299 299 299 297 293 293 293 298 293 297 298 294 301 302 305 304 303 302 301 301 302 302 305
293 293 293 295 294 294 294 292 291 293 294 294 295 296 297 297 298 298 297 295 294 294 298 297 296 296 297 297 301 304 302 301 301 301 301 300 299 302
293 293 293 293 292 293 293 293 293 294 293 293 294 293 294 295 296 297 297 297 298 296 298 299 296 297 297 297 297 302 301 301 300 299 300 301 300 300
293 293 294 292 292 292 292 293 292 292 292 292 292 293 294 295 296 296 297 298 295 298 303 304 302 300 300 299 298 299 299 299 299 298 298 297 297 298
293 292 292 292 292 292 291 291 290 291 291 290 292 292 292 293 294 295 294 294 296 298 304 304 302 301 300 300 299 297 298 297 298 297 296 295 295 295
291 291 289 289 288 288 289 290 289 290 288 289 291 290 289 292 292 294 294 295 296 298 299 302 303 302 301 301 297 298 297 296 298 297 295 293 292 293
290 288 287 287 287 287 287 288 288 289 289 289 289 289 289 290 291 293 295 296 296 298 299 300 300 300 300 300 302 297 297 296 296 296 295 292 291 292
288 288 287 287 286 287 287 287 287 289 290 289 288 288 290 291 291 293 294 295 296 298 299 299 299 298 295 293 297 299 298 298 297 295 294 293 291 292
289 288 288 287 287 286 286 287 288 289 290 290 289 290 291 291 292 293 293 295 297 298 298 299 298 297 295 294 294 294 295 300 298 296 295 296 294 297
290 289 288 288 288 288 287 288 289 289 290 290 290 291 291 292 293 294 295 290 294 298 297 297 298 291 300 300 295 293 295 297 297 297 297 296 293 293
290 289 289 289 289 288 289 289 289 290 290 291 291 292 293 294 294 295 297 298 298 299 298 299 301 300 299 296 294 293 293 294 296 297 296 295 293 290
290 289 289 289 289 289 289 289 289 290 291 291 292 293 293 294 296 299 300 299 299 298 298 297 298 298 296 295 293 293 292 291 292 291 292 295 295 295
Wind_Speed
6 5 4 7 5 5 5 5 5 7 6 3 3 3 3 4 8 6 6 12 17 16 13 14 16 18 17 17 17 17 18 18 18 19 21 21 19 20
5 6 5 6 5 5 4 5 4 4 4 3 5 4 4 4 8 7 6 16 15 12 12 15 16 17 16 16 17 18 20 19 19 20 20 20 20 20
5 6 8 5 4 4 4 3 3 4 6 5 3 3 3 5 6 5 6 7 6 11 12 14 15 17 15 16 16 17 18 19 19 21 21 20 20 21
8 4 6 4 5 5 3 6 4 5 3 9 4 3 5 4 5 6 6 5 4 10 16 16 16 16 14 16 14 15 14 15 16 17 19 19 20 20
6 6 6 5 7 5 5 5 4 4 4 4 6 4 4 3 3 4 5 5 4 13 16 15 15 16 18 16 15 14 14 14 14 14 16 18 18 18
6 6 5 5 7 6 6 6 6 4 3 4 7 9 6 4 3 5 4 3 6 7 10 11 14 16 15 17 15 16 14 12 12 12 12 12 12 14
5 4 5 8 10 8 4 5 4 5 6 6 7 8 5 3 4 2 3 4 6 4 3 6 6 6 7 10 11 12 11 7 8 9 11 10 12 13
4 5 6 9 8 14 16 16 15 11 10 6 5 4 6 7 4 3 2 2 3 1 3 9 4 5 5 4 8 7 6 7 6 6 5 6 8 10
5 5 7 6 8 6 9 12 11 14 11 4 3 4 6 4 3 3 3 2 4 5 1 6 2 3 3 4 8 9 8 5 7 7 6 8 10 12
5 5 6 7 4 9 7 8 8 8 7 6 7 8 8 6 6 2 2 2 3 5 4 3 2 4 3 3 6 8 7 6 6 6 9 11 13 13
5 6 5 6 10 12 7 8 9 8 9 13 13 12 10 11 9 3 2 1 3 2 2 2 2 4 2 3 3 5 7 6 6 8 13 10 6 5
6 6 11 9 12 12 6 7 7 6 7 8 6 7 5 1 3 4 1 3 2 2 1 2 2 2 4 2 2 3 4 7 8 11 13 6 3 3
6 6 6 13 13 9 9 5 8 9 8 6 5 3 2 2 2 2 1 2 1 3 4 1 2 2 3 3 3 2 3 4 4 5 8 17 17 9
6 5 6 10 11 11 7 11 12 10 5 5 4 2 2 3 3 2 3 4 4 7 8 4 4 3 2 2 2 2 4 5 4 5 5 9 14 17
6 9 10 10 10 7 11 12 11 5 5 3 3 3 2 3 4 3 3 4 6 5 5 5 4 4 3 1 1 2 2 6 6 6 8 10 8 8
9 6 8 8 8 7 7 7 5 5 5 5 3 3 3 3 3 2 2 3 2 3 3 6 5 4 4 5 5 7 8 4 5 7 8 10 9 10
8 4 4 4 4 4 5 5 5 4 5 5 4 4 3 4 3 3 2 2 2 3 3 3 7 10 10 7 8 8 8 9 7 7 10 11 11 10
3 4 4 4 5 5 5 4 4 6 4 4 4 3 4 4 4 3 2 2 2 3 4 4 3 3 6 12 16 9 9 10 9 10 9 11 11 10
4 5 4 5 4 5 4 4 4 4 4 3 3 3 4 4 5 3 3 3 3 4 4 4 6 4 7 8 4 18 8 7 7 9 8 10 10 9
5 5 5 4 4 4 4 3 4 4 3 3 3 3 4 3 3 4 3 3 3 5 6 5 7 7 5 3 3 7 15 4 5 6 5 4 4 8
6 6 6 6 5 4 4 4 4 4 3 2 2 3 3 2 3 3 3 4 5 6 7 6 3 4 3 2 7 8 10 27 18 6 3 5 7 8
6 6 6 5 4 5 5 5 4 4 3 3 3 3 3 2 2 3 3 6 5 5 5 4 5 6 7 9 9 10 9 8 15 26 24 18 3 4
6 5 5 5 5 5 4 4 4 4 5 4 4 4 3 2 2 4 6 6 5 6 6 6 6 6 7 7 9 8 11 10 8 10 11 20 20 19
Wind_Direction
247 248 236 260 254 237 233 211 238 286 279 265 269 236 249 274 275 281 285 289 299 289 288 303 301 294 292 292 290 285 283 279 273 271 268 263 267 268
243 249 263 259 255 251 238 238 217 231 265 224 248 247 262 286 287 299 293 301 296 291 286 306 301 301 292 287 284 280 273 269 267 267 263 263 258 257
267 240 260 253 252 266 268 262 245 197 254 270 226 246 262 264 282 287 291 289 282 286 291 303 300 301 292 284 287 283 276 275 270 269 258 260 257 254
254 249 241 244 271 270 278 265 241 250 234 275 283 267 242 251 256 283 287 285 285 297 298 303 300 299 295 284 279 286 273 275 267 271 252 252 252 254
255 240 250 248 259 257 247 256 256 264 246 254 286 286 255 253 282 268 270 285 278 296 299 301 304 296 297 291 284 278 273 267 263 266 249 248 243 245
253 248 267 268 266 272 265 253 254 243 246 248 294 296 271 254 230 264 282 263 295 293 298 300 301 298 301 292 285 281 271 262 263 254 242 229 229 237
278 333 324 308 316 313 285 267 269 262 263 269 280 279 259 247 233 235 262 294 298 292 311 304 297 292 283 288 291 289 288 275 287 282 234 228 230 235
2 347 330 319 316 319 319 317 304 293 278 249 260 292 308 278 231 222 241 295 318 111 342 307 282 290 294 298 332 1 346 324 308 306 293 268 252 245
2 334 319 321 349 10 348 334 327 325 324 305 262 274 287 327 297 215 224 229 267 287 2 287 272 289 293 320 322 349 337 333 322 306 301 288 273 260
321 310 308 315 27 346 320 311 309 305 292 284 271 267 252 256 279 217 228 262 268 272 186 264 308 305 324 302 310 341 339 336 314 304 302 288 275 265
340 325 333 340 327 340 330 316 308 302 308 307 303 302 289 268 243 185 223 270 289 276 258 267 303 307 286 289 303 335 344 345 340 337 312 279 192 148
319 334 333 336 332 331 327 313 311 319 314 299 293 298 282 209 202 202 195 270 257 285 213 355 313 351 324 281 301 354 345 359 0 355 8 97 183 98
326 331 323 337 338 333 343 324 319 317 308 309 289 289 287 264 236 151 88 274 289 246 265 299 281 287 223 295 310 10 4 350 4 358 20 52 55 44
324 327 320 354 348 348 344 343 347 336 323 311 314 3 13 36 31 344 303 267 243 250 274 244 253 226 249 271 275 0 36 23 23 32 33 43 47 56
327 334 346 345 336 339 352 1 352 341 333 326 22 45 41 5 338 320 290 256 274 261 266 273 243 260 245 225 49 13 44 39 34 46 56 51 40 34
336 343 347 344 344 346 356 356 352 355 0 354 14 27 4 353 338 322 322 320 291 307 3 27 39 33 52 53 69 62 41 69 32 53 66 58 45 41
342 343 338 342 342 345 354 351 348 360 6 346 4 22 5 347 331 317 296 314 331 354 0 16 59 63 55 49 69 60 60 57 44 55 64 68 50 41
344 339 338 339 345 351 353 340 340 354 0 351 359 9 9 341 334 321 330 359 1 21 41 24 27 73 79 62 49 71 64 62 50 49 55 68 60 42
352 340 339 343 348 348 346 349 338 346 340 356 2 9 345 333 336 346 353 1 14 55 46 29 37 32 79 78 15 31 71 64 70 65 60 65 73 61
346 346 348 347 349 351 348 336 339 346 3 18 10 352 328 325 340 0 355 2 29 63 63 51 49 51 49 35 60 40 32 67 75 84 84 77 89 97
356 14 6 3 8 3 346 342 355 11 9 347 331 329 330 338 347 343 359 52 71 69 77 66 36 28 46 51 72 60 54 53 53 35 13 93 74 48
19 19 11 7 5 2 359 360 1 349 351 343 330 330 333 336 347 5 47 82 68 63 69 54 44 64 70 80 85 79 61 52 50 53 54 58 7 75
20 20 3 357 359 3 3 356 351 351 348 345 338 338 340 18 35 62 69 69 67 69 74 71 64 62 63 77 85 83 74 64 63 61 59 62 70 75